Time,TemperatureF,DewpointF,PressureIn,WindDirection,WindDirectionDegrees,WindSpeedMPH,WindSpeedGustMPH,Humidity,HourlyPrecipIn,Conditions,Clouds,dailyrainin,SoftwareType,DateUTC
2013-01-19 00:00:00,42.8,37.1,29.58,NNE,32,5.0,7.0,80,0.00,,,0.06,VWS V14.01,2013-01-18 23:00:00,
2013-01-19 00:02:00,42.8,37.1,29.58,NNE,32,4.0,6.0,80,0.00,,,0.06,VWS V14.01,2013-01-18 23:02:00,
2013-01-19 00:07:00,42.9,37.2,29.58,NNE,32,5.0,6.0,80,0.00,,,0.00,VWS V14.01,2013-01-18 23:07:00,
2013-01-19 00:10:00,42.9,36.8,29.59,NNE,32,4.0,6.0,79,0.00,,,0.00,VWS V14.01,2013-01-18 23:10:00,
2013-01-19 00:12:00,42.9,36.8,29.58,NNE,32,3.0,6.0,79,0.00,,,0.00,VWS V14.01,2013-01-18 23:12:00,
2013-01-19 00:17:00,42.8,36.8,29.58,NNE,32,4.0,5.0,79,0.00,,,0.00,VWS V14.01,2013-01-18 23:17:00,
2013-01-19 00:20:00,43.0,36.9,29.59,NNE,32,4.0,5.0,79,0.00,,,0.00,VWS V14.01,2013-01-18 23:20:00,
2013-01-19 00:22:00,43.0,36.9,29.59,NNE,32,3.0,5.0,79,0.00,,,0.00,VWS V14.01,2013-01-18 23:22:00,
2013-01-19 00:27:00,43.1,37.0,29.59,NNE,32,3.0,5.0,79,0.00,,,0.00,VWS V14.01,2013-01-18 23:27:00,
2013-01-19 00:30:00,43.0,36.9,29.59,NNE,32,4.0,6.0,79,0.00,,,0.00,VWS V14.01,2013-01-18 23:30:00,
2013-01-19 00:32:00,43.0,36.9,29.59,NNE,32,3.0,6.0,79,0.00,,,0.00,VWS V14.01,2013-01-18 23:32:00,
2013-01-19 00:37:00,43.0,36.9,29.59,NNE,32,4.0,6.0,79,0.00,,,0.00,VWS V14.01,2013-01-18 23:37:00,
2013-01-19 00:40:00,43.0,36.6,29.59,NNE,32,4.0,6.0,78,0.00,,,0.00,VWS V14.01,2013-01-18 23:40:00,
2013-01-19 00:42:00,43.0,36.6,29.59,NNE,32,3.0,6.0,78,0.00,,,0.00,VWS V14.01,2013-01-18 23:42:00,
2013-01-19 00:47:00,42.9,36.5,29.59,NNE,32,4.0,5.0,78,0.00,,,0.00,VWS V14.01,2013-01-18 23:47:00,
2013-01-19 00:50:00,42.8,36.4,29.59,NNE,32,4.0,5.0,78,0.00,,,0.00,VWS V14.01,2013-01-18 23:50:00,
2013-01-19 00:52:00,42.9,36.8,29.59,NNE,32,3.0,5.0,79,0.00,,,0.00,VWS V14.01,2013-01-18 23:52:00,
2013-01-19 00:57:00,42.8,36.8,29.59,NNE,32,4.0,4.0,79,0.00,,,0.00,VWS V14.01,2013-01-18 23:57:00,
2013-01-19 01:00:00,43.0,36.6,29.59,NNE,32,4.0,5.0,78,0.00,,,0.00,VWS V14.01,2013-01-19 00:00:00,
2013-01-19 01:02:00,43.0,36.6,29.59,NNE,32,2.0,5.0,78,0.00,,,0.00,VWS V14.01,2013-01-19 00:02:00,
2013-01-19 01:07:00,43.2,36.8,29.59,NNE,32,4.0,4.0,78,0.00,,,0.00,VWS V14.01,2013-01-19 00:07:00,
2013-01-19 01:10:00,43.3,36.9,29.60,NNE,32,3.0,4.0,78,0.00,,,0.00,VWS V14.01,2013-01-19 00:10:00,
2013-01-19 01:12:00,43.2,36.8,29.59,NNE,32,3.0,4.0,78,0.00,,,0.00,VWS V14.01,2013-01-19 00:12:00,
2013-01-19 01:17:00,43.4,37.0,29.60,NNE,32,3.0,3.0,78,0.00,,,0.00,VWS V14.01,2013-01-19 00:17:00,
2013-01-19 01:20:00,42.9,36.5,29.59,NNE,32,2.0,3.0,78,0.00,,,0.00,VWS V14.01,2013-01-19 00:20:00,
2013-01-19 01:22:00,43.0,36.3,29.59,NNE,32,3.0,3.0,77,0.00,,,0.00,VWS V14.01,2013-01-19 00:22:00,
2013-01-19 01:27:00,42.9,36.5,29.59,NNE,32,1.0,3.0,78,0.00,,,0.00,VWS V14.01,2013-01-19 00:27:00,
2013-01-19 01:30:00,43.6,37.2,29.59,NNE,32,2.0,3.0,78,0.00,,,0.00,VWS V14.01,2013-01-19 00:30:00,
2013-01-19 01:32:00,43.5,37.1,29.59,NNE,32,1.0,3.0,78,0.00,,,0.00,VWS V14.01,2013-01-19 00:32:00,
2013-01-19 01:37:00,43.9,37.2,29.60,NNE,32,2.0,3.0,77,0.00,,,0.00,VWS V14.01,2013-01-19 00:37:00,
2013-01-19 01:40:00,43.7,37.0,29.60,NNE,32,1.0,3.0,77,0.00,,,0.00,VWS V14.01,2013-01-19 00:40:00,
2013-01-19 01:42:00,43.8,37.1,29.60,NNE,32,1.0,3.0,77,0.00,,,0.00,VWS V14.01,2013-01-19 00:42:00,
2013-01-19 01:47:00,43.8,37.1,29.60,NNE,32,0.0,1.0,77,0.00,,,0.00,VWS V14.01,2013-01-19 00:47:00,
2013-01-19 01:50:00,44.1,37.0,29.60,NNE,32,2.0,2.0,76,0.00,,,0.00,VWS V14.01,2013-01-19 00:50:00,
2013-01-19 01:52:00,44.1,37.4,29.60,NNE,32,1.0,1.0,77,0.00,,,0.00,VWS V14.01,2013-01-19 00:52:00,
2013-01-19 01:57:00,43.9,36.8,29.60,NNE,32,0.0,3.0,76,0.00,,,0.00,VWS V14.01,2013-01-19 00:57:00,
2013-01-19 02:00:00,43.5,36.5,29.61,NNE,32,0.0,3.0,76,0.00,,,0.00,VWS V14.01,2013-01-19 01:00:00,
2013-01-19 02:02:00,43.6,36.5,29.61,NNE,32,0.0,3.0,76,0.00,,,0.00,VWS V14.01,2013-01-19 01:02:00,
2013-01-19 02:07:00,43.5,36.5,29.61,NNE,32,0.0,0.0,76,0.00,,,0.00,VWS V14.01,2013-01-19 01:07:00,
2013-01-19 02:10:00,43.5,36.5,29.61,NNE,32,1.0,2.0,76,0.00,,,0.00,VWS V14.01,2013-01-19 01:10:00,
2013-01-19 02:12:00,43.6,36.5,29.62,NNE,32,0.0,0.0,76,0.00,,,0.00,VWS V14.01,2013-01-19 01:12:00,
2013-01-19 02:17:00,43.5,36.8,29.61,NNE,32,1.0,2.0,77,0.00,,,0.00,VWS V14.01,2013-01-19 01:17:00,
2013-01-19 02:20:00,43.4,36.7,29.61,NNE,32,0.0,2.0,77,0.00,,,0.00,VWS V14.01,2013-01-19 01:20:00,
2013-01-19 02:22:00,43.4,36.3,29.62,NNE,32,0.0,2.0,76,0.00,,,0.00,VWS V14.01,2013-01-19 01:22:00,
2013-01-19 02:27:00,43.6,36.9,29.61,NNE,32,0.0,0.0,77,0.00,,,0.00,VWS V14.01,2013-01-19 01:27:00,
2013-01-19 02:30:00,43.7,36.6,29.62,NNE,32,0.0,0.0,76,0.00,,,0.00,VWS V14.01,2013-01-19 01:30:00,
2013-01-19 02:32:00,43.8,36.7,29.62,NNE,32,0.0,0.0,76,0.00,,,0.00,VWS V14.01,2013-01-19 01:32:00,
2013-01-19 02:37:00,43.6,36.5,29.62,NNE,32,0.0,0.0,76,0.00,,,0.00,VWS V14.01,2013-01-19 01:37:00,
2013-01-19 02:40:00,43.4,36.7,29.62,NNE,32,2.0,2.0,77,0.00,,,0.00,VWS V14.01,2013-01-19 01:40:00,
2013-01-19 02:42:00,43.5,36.8,29.62,NNE,32,2.0,2.0,77,0.00,,,0.00,VWS V14.01,2013-01-19 01:42:00,
2013-01-19 02:47:00,43.5,36.8,29.62,NNE,32,1.0,2.0,77,0.00,,,0.00,VWS V14.01,2013-01-19 01:47:00,
2013-01-19 02:50:00,43.9,37.2,29.62,NNE,32,0.0,3.0,77,0.00,,,0.00,VWS V14.01,2013-01-19 01:50:00,
2013-01-19 02:52:00,43.8,37.1,29.62,NNE,32,2.0,3.0,77,0.00,,,0.00,VWS V14.01,2013-01-19 01:52:00,
2013-01-19 02:58:00,43.9,37.2,29.62,NNE,32,0.0,1.0,77,0.00,,,0.00,VWS V14.01,2013-01-19 01:58:00,
2013-01-19 03:00:00,43.6,36.5,29.62,NNE,32,2.0,4.0,76,0.00,,,0.00,VWS V14.01,2013-01-19 02:00:00,
2013-01-19 03:02:00,43.7,36.6,29.62,NNE,32,3.0,4.0,76,0.00,,,0.00,VWS V14.01,2013-01-19 02:02:00,
2013-01-19 03:08:00,43.3,36.3,29.62,NNE,32,3.0,4.0,76,0.00,,,0.00,VWS V14.01,2013-01-19 02:08:00,
2013-01-19 03:10:00,43.4,36.3,29.62,NNE,32,2.0,5.0,76,0.00,,,0.00,VWS V14.01,2013-01-19 02:10:00,
2013-01-19 03:13:00,43.3,36.3,29.62,NNE,32,4.0,5.0,76,0.00,,,0.00,VWS V14.01,2013-01-19 02:13:00,
2013-01-19 03:18:00,43.5,36.5,29.62,NNE,32,5.0,5.0,76,0.00,,,0.00,VWS V14.01,2013-01-19 02:18:00,
2013-01-19 03:20:00,43.7,36.0,29.62,North,355,6.0,9.0,74,0.00,,,0.00,VWS V14.01,2013-01-19 02:20:00,
2013-01-19 03:23:00,43.5,35.8,29.62,NNW,346,7.0,9.0,74,0.00,,,0.00,VWS V14.01,2013-01-19 02:23:00,
2013-01-19 03:28:00,44.2,35.8,29.62,NNW,340,7.0,11.0,72,0.00,,,0.00,VWS V14.01,2013-01-19 02:28:00,
2013-01-19 03:30:00,44.3,34.8,29.62,NNW,347,5.0,11.0,69,0.00,,,0.00,VWS V14.01,2013-01-19 02:30:00,
2013-01-19 03:33:00,44.3,34.8,29.62,NNE,17,8.0,11.0,69,0.00,,,0.00,VWS V14.01,2013-01-19 02:33:00,
2013-01-19 03:38:00,44.0,34.5,29.62,NNW,336,3.0,8.0,69,0.00,,,0.00,VWS V14.01,2013-01-19 02:38:00,
2013-01-19 03:40:00,44.4,34.1,29.62,NNW,342,5.0,10.0,67,0.00,,,0.00,VWS V14.01,2013-01-19 02:40:00,
2013-01-19 03:43:00,44.3,34.0,29.62,North,355,4.0,10.0,67,0.00,,,0.00,VWS V14.01,2013-01-19 02:43:00,
2013-01-19 03:48:00,44.1,33.5,29.62,North,349,3.0,5.0,66,0.00,,,0.00,VWS V14.01,2013-01-19 02:48:00,
2013-01-19 03:50:00,44.0,33.8,29.62,NNW,333,6.0,13.0,67,0.00,,,0.00,VWS V14.01,2013-01-19 02:50:00,
2013-01-19 03:53:00,43.5,33.3,29.62,NNW,338,12.0,13.0,67,0.00,,,0.00,VWS V14.01,2013-01-19 02:53:00,
2013-01-19 03:58:00,44.2,32.8,29.62,NNW,337,3.0,7.0,64,0.00,,,0.00,VWS V14.01,2013-01-19 02:58:00,
2013-01-19 04:00:00,43.9,32.9,29.62,NNW,337,1.0,7.0,65,0.00,,,0.00,VWS V14.01,2013-01-19 03:00:00,
2013-01-19 04:03:00,44.0,33.0,29.62,NNW,337,3.0,7.0,65,0.00,,,0.00,VWS V14.01,2013-01-19 03:03:00,
2013-01-19 04:08:00,43.7,32.7,29.62,NNW,337,1.0,4.0,65,0.00,,,0.00,VWS V14.01,2013-01-19 03:08:00,
2013-01-19 04:10:00,43.2,32.6,29.62,NNW,337,2.0,4.0,66,0.00,,,0.00,VWS V14.01,2013-01-19 03:10:00,
2013-01-19 04:13:00,43.4,32.8,29.62,NNW,337,4.0,4.0,66,0.00,,,0.00,VWS V14.01,2013-01-19 03:13:00,
2013-01-19 04:18:00,42.8,33.0,29.62,NNW,337,2.0,5.0,68,0.00,,,0.00,VWS V14.01,2013-01-19 03:18:00,
2013-01-19 04:20:00,43.1,33.6,29.62,NNW,337,3.0,5.0,69,0.00,,,0.00,VWS V14.01,2013-01-19 03:20:00,
2013-01-19 04:23:00,43.0,33.5,29.62,NNW,337,3.0,5.0,69,0.00,,,0.00,VWS V14.01,2013-01-19 03:23:00,
2013-01-19 04:28:00,43.4,33.9,29.62,NNW,342,3.0,6.0,69,0.00,,,0.00,VWS V14.01,2013-01-19 03:28:00,
2013-01-19 04:30:00,43.3,33.8,29.63,NNW,347,0.0,6.0,69,0.00,,,0.00,VWS V14.01,2013-01-19 03:30:00,
2013-01-19 04:33:00,43.3,33.8,29.62,NNW,347,0.0,6.0,69,0.00,,,0.00,VWS V14.01,2013-01-19 03:33:00,
2013-01-19 04:38:00,43.0,33.5,29.62,NNW,347,0.0,2.0,69,0.00,,,0.00,VWS V14.01,2013-01-19 03:38:00,
2013-01-19 04:40:00,42.8,33.7,29.62,NNW,347,0.0,2.0,70,0.00,,,0.00,VWS V14.01,2013-01-19 03:40:00,
2013-01-19 04:43:00,42.8,33.7,29.62,NNW,347,0.0,2.0,70,0.00,,,0.00,VWS V14.01,2013-01-19 03:43:00,
2013-01-19 04:48:00,42.6,33.9,29.62,NNW,347,0.0,0.0,71,0.00,,,0.00,VWS V14.01,2013-01-19 03:48:00,
2013-01-19 04:50:00,42.6,33.9,29.63,NNW,347,0.0,0.0,71,0.00,,,0.00,VWS V14.01,2013-01-19 03:50:00,
2013-01-19 04:53:00,42.5,33.8,29.63,NNW,347,0.0,0.0,71,0.00,,,0.00,VWS V14.01,2013-01-19 03:53:00,
2013-01-19 04:58:00,42.8,34.1,29.63,NNW,347,0.0,0.0,71,0.00,,,0.00,VWS V14.01,2013-01-19 03:58:00,
2013-01-19 05:00:00,42.8,34.1,29.63,NNW,347,0.0,0.0,71,0.00,,,0.00,VWS V14.01,2013-01-19 04:00:00,
2013-01-19 05:03:00,42.8,34.1,29.63,NNW,347,0.0,0.0,71,0.00,,,0.00,VWS V14.01,2013-01-19 04:03:00,
2013-01-19 05:08:00,42.8,34.1,29.63,NNW,347,0.0,0.0,71,0.00,,,0.00,VWS V14.01,2013-01-19 04:08:00,
2013-01-19 05:10:00,42.6,33.9,29.63,NNW,347,0.0,0.0,71,0.00,,,0.00,VWS V14.01,2013-01-19 04:10:00,
2013-01-19 05:13:00,42.7,34.0,29.63,NNW,347,0.0,0.0,71,0.00,,,0.00,VWS V14.01,2013-01-19 04:13:00,
2013-01-19 05:18:00,42.5,34.1,29.63,NNW,347,0.0,0.0,72,0.00,,,0.00,VWS V14.01,2013-01-19 04:18:00,
2013-01-19 05:20:00,42.4,34.0,29.64,NNW,347,0.0,1.0,72,0.00,,,0.00,VWS V14.01,2013-01-19 04:20:00,
2013-01-19 05:23:00,42.4,34.0,29.64,NNW,347,0.0,1.0,72,0.00,,,0.00,VWS V14.01,2013-01-19 04:23:00,
2013-01-19 05:28:00,42.7,34.3,29.64,NNW,347,0.0,0.0,72,0.00,,,0.00,VWS V14.01,2013-01-19 04:28:00,
2013-01-19 05:30:00,43.1,34.7,29.64,NNW,347,0.0,0.0,72,0.00,,,0.00,VWS V14.01,2013-01-19 04:30:00,
2013-01-19 05:33:00,43.0,34.6,29.64,NNW,347,0.0,0.0,72,0.00,,,0.00,VWS V14.01,2013-01-19 04:33:00,
2013-01-19 05:38:00,43.2,34.8,29.64,NNW,347,0.0,0.0,72,0.00,,,0.00,VWS V14.01,2013-01-19 04:38:00,
2013-01-19 05:40:00,43.1,34.3,29.64,NNW,347,0.0,0.0,71,0.00,,,0.00,VWS V14.01,2013-01-19 04:40:00,
2013-01-19 05:43:00,43.1,34.3,29.64,NNW,347,0.0,0.0,71,0.00,,,0.00,VWS V14.01,2013-01-19 04:43:00,
2013-01-19 05:48:00,43.1,34.7,29.64,NNW,347,0.0,0.0,72,0.00,,,0.00,VWS V14.01,2013-01-19 04:48:00,
2013-01-19 05:50:00,43.1,34.3,29.64,NNW,347,0.0,0.0,71,0.00,,,0.00,VWS V14.01,2013-01-19 04:50:00,
2013-01-19 05:53:00,43.1,34.3,29.64,NNW,347,0.0,0.0,71,0.00,,,0.00,VWS V14.01,2013-01-19 04:53:00,
2013-01-19 05:58:00,43.2,34.5,29.64,NNW,347,0.0,0.0,71,0.00,,,0.00,VWS V14.01,2013-01-19 04:58:00,
2013-01-19 06:00:00,43.3,34.5,29.64,NNW,347,0.0,0.0,71,0.00,,,0.00,VWS V14.01,2013-01-19 05:00:00,
2013-01-19 06:01:00,43.3,34.5,29.64,NNW,347,0.0,0.0,71,0.00,,,0.00,VWS V14.01,2013-01-19 05:01:00,
2013-01-19 06:02:00,43.5,34.4,29.64,NNW,347,0.0,0.0,70,0.00,,,0.00,VWS V14.01,2013-01-19 05:02:00,
2013-01-19 06:04:00,43.6,34.8,29.64,NNW,347,0.0,0.0,71,0.00,,,0.00,VWS V14.01,2013-01-19 05:04:00,
2013-01-19 06:09:00,43.7,34.6,29.64,NNW,347,0.0,0.0,70,0.00,,,0.00,VWS V14.01,2013-01-19 05:09:00,
2013-01-19 06:10:00,43.6,34.1,29.64,NNW,347,0.0,0.0,69,0.00,,,0.00,VWS V14.01,2013-01-19 05:10:00,
2013-01-19 06:14:00,43.7,34.2,29.64,NNW,347,0.0,0.0,69,0.00,,,0.00,VWS V14.01,2013-01-19 05:14:00,
2013-01-19 06:19:00,43.5,34.4,29.64,NNW,347,0.0,0.0,70,0.00,,,0.00,VWS V14.01,2013-01-19 05:19:00,
2013-01-19 06:20:00,43.6,34.1,29.64,NNW,347,0.0,0.0,69,0.00,,,0.00,VWS V14.01,2013-01-19 05:20:00,
2013-01-19 06:24:00,43.6,34.1,29.64,NNW,347,0.0,0.0,69,0.00,,,0.00,VWS V14.01,2013-01-19 05:24:00,
2013-01-19 06:29:00,43.9,34.4,29.64,North,355,4.0,4.0,69,0.00,,,0.00,VWS V14.01,2013-01-19 05:29:00,
2013-01-19 06:30:00,43.8,34.3,29.64,NNE,15,3.0,4.0,69,0.00,,,0.00,VWS V14.01,2013-01-19 05:30:00,
2013-01-19 06:34:00,43.8,34.3,29.64,NNE,15,3.0,4.0,69,0.00,,,0.00,VWS V14.01,2013-01-19 05:34:00,
2013-01-19 06:39:00,43.7,34.2,29.64,NNE,18,4.0,4.0,69,0.00,,,0.00,VWS V14.01,2013-01-19 05:39:00,
2013-01-19 06:40:00,43.6,34.1,29.65,NNE,19,3.0,4.0,69,0.00,,,0.00,VWS V14.01,2013-01-19 05:40:00,
2013-01-19 06:44:00,43.6,34.1,29.65,NNE,19,3.0,4.0,69,0.00,,,0.00,VWS V14.01,2013-01-19 05:44:00,
2013-01-19 06:49:00,43.3,34.2,29.65,NE,40,5.0,5.0,70,0.00,,,0.00,VWS V14.01,2013-01-19 05:49:00,
2013-01-19 06:50:00,43.4,34.3,29.65,NE,42,4.0,5.0,70,0.00,,,0.00,VWS V14.01,2013-01-19 05:50:00,
2013-01-19 06:54:00,43.4,34.3,29.65,NE,42,4.0,5.0,70,0.00,,,0.00,VWS V14.01,2013-01-19 05:54:00,
2013-01-19 06:59:00,43.5,34.4,29.65,NE,42,2.0,4.0,70,0.00,,,0.00,VWS V14.01,2013-01-19 05:59:00,
2013-01-19 07:00:00,43.5,34.4,29.65,NE,42,3.0,4.0,70,0.00,,,0.00,VWS V14.01,2013-01-19 06:00:00,
2013-01-19 07:04:00,43.5,34.4,29.65,NE,42,3.0,4.0,70,0.00,,,0.00,VWS V14.01,2013-01-19 06:04:00,
2013-01-19 07:09:00,43.3,34.2,29.65,NE,46,3.0,4.0,70,0.00,,,0.00,VWS V14.01,2013-01-19 06:09:00,
2013-01-19 07:10:00,43.2,34.5,29.65,ENE,59,4.0,5.0,71,0.00,,,0.00,VWS V14.01,2013-01-19 06:10:00,
2013-01-19 07:14:00,43.2,34.5,29.65,ENE,59,4.0,5.0,71,0.00,,,0.00,VWS V14.01,2013-01-19 06:14:00,
2013-01-19 07:19:00,43.8,34.7,29.65,ENE,61,5.0,5.0,70,0.00,,,0.00,VWS V14.01,2013-01-19 06:19:00,
2013-01-19 07:20:00,44.2,34.7,29.65,ENE,61,4.0,5.0,69,0.00,,,0.00,VWS V14.01,2013-01-19 06:20:00,
2013-01-19 07:24:00,44.2,34.7,29.65,ENE,61,4.0,5.0,69,0.00,,,0.00,VWS V14.01,2013-01-19 06:24:00,
2013-01-19 07:29:00,44.1,34.6,29.65,ENE,61,3.0,4.0,69,0.00,,,0.00,VWS V14.01,2013-01-19 06:29:00,
2013-01-19 07:30:00,44.0,34.1,29.65,ENE,61,3.0,4.0,68,0.00,,,0.00,VWS V14.01,2013-01-19 06:30:00,
2013-01-19 07:34:00,44.1,34.2,29.65,ENE,61,4.0,4.0,68,0.00,,,0.00,VWS V14.01,2013-01-19 06:34:00,
2013-01-19 07:39:00,44.0,34.5,29.65,ENE,61,3.0,4.0,69,0.00,,,0.00,VWS V14.01,2013-01-19 06:39:00,
2013-01-19 07:40:00,44.0,34.5,29.65,ENE,62,4.0,5.0,69,0.00,,,0.00,VWS V14.01,2013-01-19 06:40:00,
2013-01-19 07:44:00,44.0,34.5,29.65,ENE,62,4.0,5.0,69,0.00,,,0.00,VWS V14.01,2013-01-19 06:44:00,
2013-01-19 07:49:00,44.1,34.6,29.65,ENE,62,3.0,4.0,69,0.00,,,0.00,VWS V14.01,2013-01-19 06:49:00,
2013-01-19 07:50:00,44.4,34.5,29.65,ENE,62,4.0,4.0,68,0.00,,,0.00,VWS V14.01,2013-01-19 06:50:00,
2013-01-19 07:54:00,44.4,34.5,29.65,ENE,62,4.0,4.0,68,0.00,,,0.00,VWS V14.01,2013-01-19 06:54:00,
2013-01-19 07:59:00,44.6,34.7,29.65,ENE,62,5.0,5.0,68,0.00,,,0.00,VWS V14.01,2013-01-19 06:59:00,
2013-01-19 08:00:00,44.5,34.2,29.65,ENE,62,4.0,5.0,67,0.00,,,0.00,VWS V14.01,2013-01-19 07:00:00,
2013-01-19 08:04:00,44.5,34.2,29.65,ENE,62,4.0,5.0,67,0.00,,,0.00,VWS V14.01,2013-01-19 07:04:00,
2013-01-19 08:09:00,44.5,34.2,29.65,ENE,73,4.0,5.0,67,0.00,,,0.00,VWS V14.01,2013-01-19 07:09:00,
2013-01-19 08:10:00,44.6,34.3,29.65,East,82,6.0,6.0,67,0.00,,,0.00,VWS V14.01,2013-01-19 07:10:00,
2013-01-19 08:14:00,44.6,34.3,29.65,East,82,5.0,6.0,67,0.00,,,0.00,VWS V14.01,2013-01-19 07:14:00,
2013-01-19 08:19:00,44.7,34.4,29.65,East,82,2.0,6.0,67,0.00,,,0.00,VWS V14.01,2013-01-19 07:19:00,
2013-01-19 08:20:00,44.8,34.5,29.65,East,82,5.0,6.0,67,0.00,,,0.00,VWS V14.01,2013-01-19 07:20:00,
2013-01-19 08:24:00,44.8,34.5,29.65,East,82,3.0,5.0,67,0.00,,,0.00,VWS V14.01,2013-01-19 07:24:00,
2013-01-19 08:29:00,45.0,34.3,29.64,East,82,3.0,6.0,66,0.00,,,0.00,VWS V14.01,2013-01-19 07:29:00,
2013-01-19 08:30:00,45.2,34.5,29.65,East,82,5.0,6.0,66,0.00,,,0.00,VWS V14.01,2013-01-19 07:30:00,
2013-01-19 08:34:00,45.2,34.5,29.65,East,82,3.0,5.0,66,0.00,,,0.00,VWS V14.01,2013-01-19 07:34:00,
2013-01-19 08:39:00,45.3,34.2,29.65,East,82,6.0,6.0,65,0.00,,,0.00,VWS V14.01,2013-01-19 07:39:00,
2013-01-19 08:40:00,45.5,34.8,29.64,East,82,5.0,6.0,66,0.00,,,0.00,VWS V14.01,2013-01-19 07:40:00,
2013-01-19 08:44:00,45.5,34.8,29.64,East,82,5.0,5.0,66,0.00,,,0.00,VWS V14.01,2013-01-19 07:44:00,
2013-01-19 08:49:00,45.7,35.0,29.65,East,82,3.0,7.0,66,0.00,,,0.00,VWS V14.01,2013-01-19 07:49:00,
2013-01-19 08:50:00,45.7,35.0,29.65,East,82,5.0,7.0,66,0.00,,,0.00,VWS V14.01,2013-01-19 07:50:00,
2013-01-19 08:54:00,45.8,35.1,29.65,East,82,6.0,6.0,66,0.00,,,0.00,VWS V14.01,2013-01-19 07:54:00,
2013-01-19 08:59:00,46.1,35.4,29.65,East,82,3.0,7.0,66,0.00,,,0.00,VWS V14.01,2013-01-19 07:59:00,
2013-01-19 09:00:00,46.4,35.7,29.65,East,82,3.0,7.0,66,0.00,,,0.00,VWS V14.01,2013-01-19 08:00:00,
2013-01-19 09:04:00,46.4,35.7,29.65,East,82,7.0,7.0,66,0.00,,,0.00,VWS V14.01,2013-01-19 08:04:00,
2013-01-19 09:10:00,46.8,35.7,29.65,ENE,78,4.0,7.0,65,0.00,,,0.00,VWS V14.01,2013-01-19 08:10:00,
2013-01-19 09:15:00,47.1,36.0,29.65,East,81,5.0,7.0,65,0.00,,,0.00,VWS V14.01,2013-01-19 08:15:00,
2013-01-19 09:20:00,47.2,36.0,29.65,East,82,5.0,7.0,65,0.00,,,0.00,VWS V14.01,2013-01-19 08:20:00,
2013-01-19 09:25:00,47.3,36.2,29.65,East,81,6.0,6.0,65,0.00,,,0.00,VWS V14.01,2013-01-19 08:25:00,
2013-01-19 09:30:00,47.3,36.2,29.65,East,98,5.0,8.0,65,0.00,,,0.00,VWS V14.01,2013-01-19 08:30:00,
2013-01-19 09:35:00,47.3,36.2,29.65,East,88,6.0,6.0,65,0.00,,,0.00,VWS V14.01,2013-01-19 08:35:00,
2013-01-19 09:40:00,47.3,36.2,29.66,East,90,2.0,7.0,65,0.00,,,0.00,VWS V14.01,2013-01-19 08:40:00,
2013-01-19 09:45:00,47.3,36.5,29.66,East,92,6.0,6.0,66,0.00,,,0.00,VWS V14.01,2013-01-19 08:45:00,
2013-01-19 09:50:00,47.4,37.0,29.65,East,94,6.0,7.0,67,0.00,,,0.00,VWS V14.01,2013-01-19 08:50:00,
2013-01-19 09:55:00,47.5,37.5,29.66,East,91,5.0,6.0,68,0.00,,,0.00,VWS V14.01,2013-01-19 08:55:00,
2013-01-19 10:00:00,47.7,37.7,29.66,East,96,2.0,6.0,68,0.00,,,0.00,VWS V14.01,2013-01-19 09:00:00,
2013-01-19 10:05:00,48.0,38.0,29.66,East,101,3.0,5.0,68,0.00,,,0.00,VWS V14.01,2013-01-19 09:05:00,
2013-01-19 10:10:00,47.9,37.9,29.66,East,86,8.0,8.0,68,0.00,,,0.00,VWS V14.01,2013-01-19 09:10:00,
2013-01-19 10:15:00,48.0,38.0,29.66,East,89,2.0,5.0,68,0.00,,,0.00,VWS V14.01,2013-01-19 09:15:00,
2013-01-19 10:20:00,48.1,38.0,29.66,East,101,6.0,8.0,68,0.00,,,0.00,VWS V14.01,2013-01-19 09:20:00,
2013-01-19 10:25:00,48.1,38.0,29.66,ESE,109,3.0,5.0,68,0.00,,,0.00,VWS V14.01,2013-01-19 09:25:00,
2013-01-19 10:30:00,48.1,38.0,29.66,ESE,103,4.0,7.0,68,0.00,,,0.00,VWS V14.01,2013-01-19 09:30:00,
2013-01-19 10:35:00,48.2,38.2,29.66,ESE,103,5.0,5.0,68,0.00,,,0.00,VWS V14.01,2013-01-19 09:35:00,
2013-01-19 10:40:00,48.4,38.3,29.67,East,100,6.0,8.0,68,0.00,,,0.00,VWS V14.01,2013-01-19 09:40:00,
2013-01-19 10:45:00,48.6,38.2,29.67,East,101,5.0,5.0,67,0.00,,,0.00,VWS V14.01,2013-01-19 09:45:00,
2013-01-19 10:50:00,48.7,38.2,29.67,ESE,109,4.0,5.0,67,0.00,,,0.00,VWS V14.01,2013-01-19 09:50:00,
2013-01-19 10:55:00,48.8,38.3,29.66,East,100,3.0,6.0,67,0.00,,,0.00,VWS V14.01,2013-01-19 09:55:00,
2013-01-19 11:00:00,48.9,38.4,29.66,ESE,103,3.0,8.0,67,0.00,,,0.00,VWS V14.01,2013-01-19 10:00:00,
2013-01-19 11:05:00,49.1,38.6,29.66,East,97,7.0,8.0,67,0.00,,,0.00,VWS V14.01,2013-01-19 10:05:00,
2013-01-19 11:10:00,49.2,39.1,29.66,East,98,5.0,9.0,68,0.00,,,0.00,VWS V14.01,2013-01-19 10:10:00,
2013-01-19 11:15:00,49.4,39.7,29.66,SE,128,5.0,8.0,69,0.00,,,0.00,VWS V14.01,2013-01-19 10:15:00,
2013-01-19 11:20:00,49.5,40.1,29.66,SE,133,6.0,8.0,70,0.00,,,0.00,VWS V14.01,2013-01-19 10:20:00,
2013-01-19 11:25:00,49.5,40.5,29.66,SSE,147,4.0,7.0,71,0.00,,,0.00,VWS V14.01,2013-01-19 10:25:00,
2013-01-19 11:30:00,49.4,40.8,29.66,SE,140,7.0,12.0,72,0.00,,,0.00,VWS V14.01,2013-01-19 10:30:00,
2013-01-19 11:35:00,49.2,40.9,29.66,SE,138,5.0,8.0,73,0.00,,,0.00,VWS V14.01,2013-01-19 10:35:00,
2013-01-19 11:40:00,49.2,41.3,29.66,SE,128,6.0,8.0,74,0.01,,,0.01,VWS V14.01,2013-01-19 10:40:00,
2013-01-19 11:45:00,49.3,41.4,29.65,SE,139,4.0,5.0,74,0.01,,,0.01,VWS V14.01,2013-01-19 10:45:00,
2013-01-19 11:50:00,49.2,41.6,29.65,SE,138,4.0,7.0,75,0.01,,,0.01,VWS V14.01,2013-01-19 10:50:00,
2013-01-19 11:55:00,49.2,42.0,29.64,SE,128,3.0,5.0,76,0.01,,,0.01,VWS V14.01,2013-01-19 10:55:00,
2013-01-19 12:00:00,49.1,42.2,29.64,East,101,8.0,10.0,77,0.01,,,0.01,VWS V14.01,2013-01-19 11:00:00,
2013-01-19 12:05:00,49.0,42.1,29.64,ESE,115,8.0,9.0,77,0.01,,,0.01,VWS V14.01,2013-01-19 11:05:00,
2013-01-19 12:10:00,49.0,42.1,29.64,ESE,115,8.0,11.0,77,0.02,,,0.02,VWS V14.01,2013-01-19 11:10:00,
2013-01-19 12:20:00,49.0,42.5,29.64,ESE,118,5.0,9.0,78,0.02,,,0.02,VWS V14.01,2013-01-19 11:20:00,
2013-01-19 12:30:00,49.2,42.6,29.63,ESE,119,5.0,10.0,78,0.02,,,0.02,VWS V14.01,2013-01-19 11:30:00,
2013-01-19 12:40:00,49.8,43.2,29.63,SE,134,6.0,13.0,78,0.02,,,0.02,VWS V14.01,2013-01-19 11:40:00,
2013-01-19 12:50:00,49.9,43.3,29.63,SE,138,9.0,12.0,78,0.01,,,0.02,VWS V14.01,2013-01-19 11:50:00,
2013-01-19 13:00:00,49.9,45.0,29.62,SE,140,14.0,19.0,83,0.01,,,0.02,VWS V14.01,2013-01-19 12:00:00,
2013-01-19 13:10:00,49.8,43.9,29.62,South,179,6.0,18.0,80,0.01,,,0.02,VWS V14.01,2013-01-19 12:10:00,
2013-01-19 13:20:00,49.4,44.1,29.62,SE,136,5.0,17.0,82,0.00,,,0.02,VWS V14.01,2013-01-19 12:20:00,
2013-01-19 13:30:00,49.8,44.5,29.62,SSE,155,10.0,15.0,82,0.00,,,0.02,VWS V14.01,2013-01-19 12:30:00,
2013-01-19 13:40:00,49.8,44.8,29.62,SE,136,6.0,17.0,83,0.00,,,0.02,VWS V14.01,2013-01-19 12:40:00,
2013-01-19 13:47:00,49.8,44.8,29.62,SSE,159,7.0,11.0,83,0.00,,,0.02,VWS V14.01,2013-01-19 12:47:00,
2013-01-19 13:48:00,49.8,44.8,29.62,SE,136,10.0,11.0,83,0.00,,,0.02,VWS V14.01,2013-01-19 12:48:00,
2013-01-19 13:50:00,50.0,44.7,29.62,ESE,123,9.0,14.0,82,0.00,,,0.02,VWS V14.01,2013-01-19 12:50:00,
2013-01-19 13:53:00,50.0,44.7,29.62,SE,142,12.0,14.0,82,0.00,,,0.02,VWS V14.01,2013-01-19 12:53:00,
2013-01-19 13:58:00,50.2,44.9,29.61,ESE,123,15.0,17.0,82,0.00,,,0.02,VWS V14.01,2013-01-19 12:58:00,
2013-01-19 14:00:00,49.8,44.8,29.61,SE,128,7.0,19.0,83,0.00,,,0.02,VWS V14.01,2013-01-19 13:00:00,
2013-01-19 14:10:00,49.9,45.0,29.60,SE,134,15.0,20.0,83,0.00,,,0.02,VWS V14.01,2013-01-19 13:10:00,
2013-01-19 14:13:00,49.8,44.8,29.60,ESE,122,4.0,20.0,83,0.00,,,0.02,VWS V14.01,2013-01-19 13:13:00,
2013-01-19 14:18:00,50.0,45.0,29.60,SE,130,2.0,15.0,83,0.00,,,0.02,VWS V14.01,2013-01-19 13:18:00,
2013-01-19 14:20:00,50.0,45.0,29.60,SE,132,9.0,15.0,83,0.00,,,0.02,VWS V14.01,2013-01-19 13:20:00,
2013-01-19 14:23:00,50.0,45.0,29.60,SE,136,9.0,15.0,83,0.00,,,0.02,VWS V14.01,2013-01-19 13:23:00,
2013-01-19 14:28:00,50.0,45.0,29.60,ESE,121,7.0,13.0,83,0.00,,,0.02,VWS V14.01,2013-01-19 13:28:00,
2013-01-19 14:30:00,50.1,45.2,29.59,SSE,148,9.0,18.0,83,0.00,,,0.02,VWS V14.01,2013-01-19 13:30:00,
2013-01-19 14:33:00,50.1,45.2,29.60,SE,134,4.0,18.0,83,0.00,,,0.02,VWS V14.01,2013-01-19 13:33:00,
2013-01-19 14:38:00,50.2,45.2,29.59,SE,135,15.0,17.0,83,0.00,,,0.02,VWS V14.01,2013-01-19 13:38:00,
2013-01-19 14:40:00,50.2,45.2,29.59,SSE,167,19.0,19.0,83,0.00,,,0.02,VWS V14.01,2013-01-19 13:40:00,
2013-01-19 14:43:00,50.2,45.2,29.59,SE,141,13.0,17.0,83,0.00,,,0.02,VWS V14.01,2013-01-19 13:43:00,
2013-01-19 14:48:00,50.1,45.5,29.59,SE,125,9.0,21.0,84,0.00,,,0.02,VWS V14.01,2013-01-19 13:48:00,
2013-01-19 14:50:00,49.9,45.6,29.59,SE,135,7.0,21.0,85,0.00,,,0.02,VWS V14.01,2013-01-19 13:50:00,
2013-01-19 14:53:00,50.0,45.4,29.59,SE,130,7.0,21.0,84,0.00,,,0.02,VWS V14.01,2013-01-19 13:53:00,
2013-01-19 14:58:00,49.6,45.3,29.59,SE,136,11.0,19.0,85,0.00,,,0.02,VWS V14.01,2013-01-19 13:58:00,
2013-01-19 15:00:00,49.5,45.2,29.59,SE,139,10.0,20.0,85,0.00,,,0.02,VWS V14.01,2013-01-19 14:00:00,
2013-01-19 15:03:00,49.5,45.2,29.59,SE,146,16.0,19.0,85,0.00,,,0.02,VWS V14.01,2013-01-19 14:03:00,
2013-01-19 15:08:00,49.8,45.8,29.59,SE,144,12.0,17.0,86,0.00,,,0.02,VWS V14.01,2013-01-19 14:08:00,
2013-01-19 15:10:00,49.9,45.9,29.59,SE,131,13.0,21.0,86,0.00,,,0.02,VWS V14.01,2013-01-19 14:10:00,
2013-01-19 15:13:00,49.8,45.8,29.59,SE,146,21.0,21.0,86,0.00,,,0.02,VWS V14.01,2013-01-19 14:13:00,
2013-01-19 15:18:00,49.7,46.0,29.59,SSE,152,5.0,15.0,87,0.00,,,0.02,VWS V14.01,2013-01-19 14:18:00,
2013-01-19 15:20:00,49.6,46.2,29.59,SE,131,8.0,17.0,88,0.00,,,0.02,VWS V14.01,2013-01-19 14:20:00,
2013-01-19 15:23:00,49.7,46.3,29.59,SSE,147,16.0,17.0,88,0.00,,,0.02,VWS V14.01,2013-01-19 14:23:00,
2013-01-19 15:28:00,49.5,46.4,29.59,ESE,123,10.0,21.0,89,0.00,,,0.02,VWS V14.01,2013-01-19 14:28:00,
2013-01-19 15:30:00,49.3,46.5,29.59,SE,140,12.0,24.0,90,0.00,,,0.02,VWS V14.01,2013-01-19 14:30:00,
2013-01-19 15:33:00,49.4,46.3,29.59,SE,130,10.0,24.0,89,0.00,,,0.02,VWS V14.01,2013-01-19 14:33:00,
2013-01-19 15:38:00,49.3,46.5,29.59,SE,138,17.0,21.0,90,0.00,,,0.02,VWS V14.01,2013-01-19 14:38:00,
2013-01-19 15:40:00,49.3,46.5,29.59,SE,141,14.0,22.0,90,0.00,,,0.02,VWS V14.01,2013-01-19 14:40:00,
2013-01-19 15:43:00,49.4,46.6,29.59,SSE,151,10.0,22.0,90,0.00,,,0.02,VWS V14.01,2013-01-19 14:43:00,
2013-01-19 15:48:00,49.3,46.5,29.59,ESE,118,8.0,17.0,90,0.00,,,0.02,VWS V14.01,2013-01-19 14:48:00,
2013-01-19 15:50:00,49.2,46.4,29.59,SE,144,15.0,18.0,90,0.00,,,0.02,VWS V14.01,2013-01-19 14:50:00,
2013-01-19 15:53:00,49.3,46.5,29.59,SE,139,11.0,18.0,90,0.00,,,0.02,VWS V14.01,2013-01-19 14:53:00,
2013-01-19 15:58:00,49.3,46.5,29.59,SSE,165,7.0,17.0,90,0.00,,,0.02,VWS V14.01,2013-01-19 14:58:00,
2013-01-19 16:00:00,49.7,46.6,29.59,SSE,148,11.0,20.0,89,0.00,,,0.02,VWS V14.01,2013-01-19 15:00:00,
2013-01-19 16:03:00,49.6,46.5,29.59,ESE,114,15.0,20.0,89,0.00,,,0.02,VWS V14.01,2013-01-19 15:03:00,
2013-01-19 16:08:00,49.6,46.2,29.59,SE,124,8.0,19.0,88,0.00,,,0.02,VWS V14.01,2013-01-19 15:08:00,
2013-01-19 16:10:00,49.8,46.4,29.59,SE,144,16.0,19.0,88,0.00,,,0.02,VWS V14.01,2013-01-19 15:10:00,
2013-01-19 16:13:00,49.8,46.4,29.59,SSE,147,11.0,19.0,88,0.00,,,0.02,VWS V14.01,2013-01-19 15:13:00,
2013-01-19 16:18:00,50.0,46.6,29.59,ESE,121,11.0,17.0,88,0.00,,,0.02,VWS V14.01,2013-01-19 15:18:00,
2013-01-19 16:20:00,49.9,46.5,29.59,SSE,155,12.0,18.0,88,0.00,,,0.02,VWS V14.01,2013-01-19 15:20:00,
2013-01-19 16:23:00,49.9,46.2,29.59,South,173,15.0,18.0,87,0.00,,,0.02,VWS V14.01,2013-01-19 15:23:00,
2013-01-19 16:28:00,49.9,46.5,29.59,ESE,121,3.0,16.0,88,0.01,,,0.03,VWS V14.01,2013-01-19 15:28:00,
2013-01-19 16:30:00,49.8,46.7,29.59,SE,132,6.0,16.0,89,0.01,,,0.03,VWS V14.01,2013-01-19 15:30:00,
2013-01-19 16:33:00,49.8,46.7,29.59,ESE,107,5.0,16.0,89,0.01,,,0.03,VWS V14.01,2013-01-19 15:33:00,
2013-01-19 16:38:00,49.6,46.5,29.59,SE,135,6.0,15.0,89,0.01,,,0.03,VWS V14.01,2013-01-19 15:38:00,
2013-01-19 16:40:00,49.7,46.6,29.59,ESE,112,7.0,15.0,89,0.01,,,0.03,VWS V14.01,2013-01-19 15:40:00,
2013-01-19 16:43:00,49.7,46.6,29.59,SE,141,8.0,15.0,89,0.01,,,0.03,VWS V14.01,2013-01-19 15:43:00,
2013-01-19 16:48:00,49.8,46.7,29.59,SE,142,8.0,11.0,89,0.01,,,0.03,VWS V14.01,2013-01-19 15:48:00,
2013-01-19 16:50:00,49.7,46.9,29.59,SE,136,7.0,12.0,90,0.02,,,0.04,VWS V14.01,2013-01-19 15:50:00,
2013-01-19 16:53:00,49.8,46.7,29.59,SSE,157,6.0,12.0,89,0.02,,,0.04,VWS V14.01,2013-01-19 15:53:00,
2013-01-19 16:58:00,49.7,46.9,29.59,SSE,167,11.0,22.0,90,0.03,,,0.05,VWS V14.01,2013-01-19 15:58:00,
2013-01-19 17:00:00,49.9,47.1,29.59,SSE,163,6.0,23.0,90,0.03,,,0.05,VWS V14.01,2013-01-19 16:00:00,
2013-01-19 17:03:00,49.8,47.0,29.59,SE,133,14.0,23.0,90,0.03,,,0.05,VWS V14.01,2013-01-19 16:03:00,
2013-01-19 17:08:00,50.0,47.2,29.58,SE,129,21.0,21.0,90,0.03,,,0.05,VWS V14.01,2013-01-19 16:08:00,
2013-01-19 17:10:00,49.8,47.0,29.59,SE,142,7.0,21.0,90,0.03,,,0.05,VWS V14.01,2013-01-19 16:10:00,
2013-01-19 17:13:00,49.9,47.1,29.59,ESE,108,7.0,21.0,90,0.03,,,0.05,VWS V14.01,2013-01-19 16:13:00,
2013-01-19 17:18:00,49.6,46.8,29.59,SE,146,11.0,18.0,90,0.03,,,0.05,VWS V14.01,2013-01-19 16:18:00,
2013-01-19 17:20:00,49.8,47.3,29.59,SE,137,13.0,18.0,91,0.03,,,0.05,VWS V14.01,2013-01-19 16:20:00,
2013-01-19 17:23:00,49.7,46.9,29.59,SE,142,7.0,18.0,90,0.03,,,0.05,VWS V14.01,2013-01-19 16:23:00,
2013-01-19 17:28:00,49.9,47.4,29.60,SE,140,13.0,16.0,91,0.04,,,0.06,VWS V14.01,2013-01-19 16:28:00,
2013-01-19 17:30:00,50.1,47.6,29.59,SSE,149,15.0,19.0,91,0.04,,,0.06,VWS V14.01,2013-01-19 16:30:00,
2013-01-19 17:33:00,50.1,47.6,29.60,SSE,150,10.0,18.0,91,0.04,,,0.06,VWS V14.01,2013-01-19 16:33:00,
2013-01-19 17:38:00,50.2,47.7,29.60,South,169,7.0,17.0,91,0.03,,,0.06,VWS V14.01,2013-01-19 16:38:00,
2013-01-19 17:40:00,50.2,47.7,29.60,SE,125,7.0,18.0,91,0.03,,,0.06,VWS V14.01,2013-01-19 16:40:00,
2013-01-19 17:43:00,50.2,47.7,29.60,SE,146,9.0,18.0,91,0.03,,,0.06,VWS V14.01,2013-01-19 16:43:00,
2013-01-19 17:48:00,50.3,47.8,29.60,SSE,157,16.0,16.0,91,0.03,,,0.06,VWS V14.01,2013-01-19 16:48:00,
2013-01-19 17:50:00,50.5,48.0,29.59,SSE,151,16.0,24.0,91,0.04,,,0.07,VWS V14.01,2013-01-19 16:50:00,
2013-01-19 17:53:00,50.5,48.0,29.59,SSE,149,7.0,18.0,91,0.04,,,0.07,VWS V14.01,2013-01-19 16:53:00,
2013-01-19 17:58:00,50.5,48.0,29.60,SE,143,14.0,20.0,91,0.03,,,0.07,VWS V14.01,2013-01-19 16:58:00,
2013-01-19 18:00:00,50.4,47.9,29.60,SE,130,9.0,20.0,91,0.03,,,0.07,VWS V14.01,2013-01-19 17:00:00,
2013-01-19 18:03:00,50.4,47.9,29.60,SE,137,13.0,20.0,91,0.03,,,0.07,VWS V14.01,2013-01-19 17:03:00,
2013-01-19 18:08:00,50.3,47.8,29.60,SE,143,9.0,23.0,91,0.03,,,0.08,VWS V14.01,2013-01-19 17:08:00,
2013-01-19 18:10:00,50.3,47.8,29.60,SSE,147,13.0,23.0,91,0.03,,,0.08,VWS V14.01,2013-01-19 17:10:00,
2013-01-19 18:14:00,50.3,47.8,29.60,SE,132,17.0,23.0,91,0.03,,,0.08,VWS V14.01,2013-01-19 17:14:00,
2013-01-19 18:19:00,50.4,47.9,29.60,ESE,107,11.0,21.0,91,0.03,,,0.08,VWS V14.01,2013-01-19 17:19:00,
2013-01-19 18:20:00,50.5,48.0,29.60,SE,143,11.0,21.0,91,0.03,,,0.08,VWS V14.01,2013-01-19 17:20:00,
2013-01-19 18:24:00,50.5,48.0,29.60,SE,143,11.0,21.0,91,0.03,,,0.08,VWS V14.01,2013-01-19 17:24:00,
2013-01-19 18:29:00,50.5,48.0,29.61,SE,129,6.0,14.0,91,0.03,,,0.08,VWS V14.01,2013-01-19 17:29:00,
2013-01-19 18:30:00,50.6,48.1,29.60,SE,137,12.0,19.0,91,0.04,,,0.09,VWS V14.01,2013-01-19 17:30:00,
2013-01-19 18:34:00,50.6,48.1,29.60,SE,127,13.0,13.0,91,0.03,,,0.09,VWS V14.01,2013-01-19 17:34:00,
2013-01-19 18:39:00,50.7,48.2,29.61,SE,136,3.0,18.0,91,0.05,,,0.11,VWS V14.01,2013-01-19 17:39:00,
2013-01-19 18:40:00,50.7,48.5,29.61,ESE,117,10.0,18.0,92,0.05,,,0.11,VWS V14.01,2013-01-19 17:40:00,
2013-01-19 18:44:00,50.8,48.6,29.61,ESE,121,9.0,10.0,92,0.05,,,0.11,VWS V14.01,2013-01-19 17:44:00,
2013-01-19 18:49:00,50.9,48.7,29.61,South,169,2.0,12.0,92,0.05,,,0.11,VWS V14.01,2013-01-19 17:49:00,
2013-01-19 18:50:00,51.0,48.8,29.61,ESE,121,9.0,12.0,92,0.05,,,0.11,VWS V14.01,2013-01-19 17:50:00,
2013-01-19 18:54:00,51.0,48.8,29.61,ESE,121,9.0,12.0,92,0.05,,,0.11,VWS V14.01,2013-01-19 17:54:00,
2013-01-19 18:59:00,51.1,48.6,29.60,SE,124,6.0,11.0,91,0.04,,,0.11,VWS V14.01,2013-01-19 17:59:00,
2013-01-19 19:00:00,51.0,48.5,29.60,SSE,150,7.0,22.0,91,0.04,,,0.11,VWS V14.01,2013-01-19 18:00:00,
2013-01-19 19:04:00,51.0,48.5,29.60,SSE,150,7.0,22.0,91,0.04,,,0.11,VWS V14.01,2013-01-19 18:04:00,
2013-01-19 19:10:00,51.3,48.8,29.60,SE,136,18.0,21.0,91,0.04,,,0.11,VWS V14.01,2013-01-19 18:10:00,
2013-01-19 19:15:00,51.5,49.0,29.60,SE,135,13.0,21.0,91,0.03,,,0.11,VWS V14.01,2013-01-19 18:15:00,
2013-01-19 19:20:00,51.7,49.2,29.60,SE,135,12.0,21.0,91,0.03,,,0.11,VWS V14.01,2013-01-19 18:20:00,
2013-01-19 19:25:00,51.7,49.2,29.60,ESE,119,14.0,14.0,91,0.03,,,0.11,VWS V14.01,2013-01-19 18:25:00,
2013-01-19 19:30:00,51.7,49.2,29.60,SE,130,16.0,16.0,91,0.03,,,0.11,VWS V14.01,2013-01-19 18:30:00,
2013-01-19 19:35:00,51.6,49.1,29.60,SE,126,10.0,17.0,91,0.02,,,0.11,VWS V14.01,2013-01-19 18:35:00,
2013-01-19 19:40:00,51.7,49.2,29.60,SE,146,15.0,19.0,91,0.02,,,0.11,VWS V14.01,2013-01-19 18:40:00,
2013-01-19 19:45:00,52.0,49.2,29.60,SE,129,8.0,11.0,90,0.00,,,0.11,VWS V14.01,2013-01-19 18:45:00,
2013-01-19 19:50:00,52.2,49.4,29.60,ESE,122,12.0,20.0,90,0.01,,,0.12,VWS V14.01,2013-01-19 18:50:00,
2013-01-19 19:55:00,52.4,49.6,29.60,SE,136,20.0,20.0,90,0.01,,,0.12,VWS V14.01,2013-01-19 18:55:00,
2013-01-19 20:00:00,52.7,49.8,29.60,ESE,111,8.0,21.0,90,0.01,,,0.12,VWS V14.01,2013-01-19 19:00:00,
2013-01-19 20:01:00,52.5,49.7,29.60,SE,144,8.0,20.0,90,0.01,,,0.12,VWS V14.01,2013-01-19 19:01:00,
2013-01-19 20:06:00,52.6,49.8,29.60,SE,126,11.0,12.0,90,0.01,,,0.12,VWS V14.01,2013-01-19 19:06:00,
2013-01-19 20:10:00,52.7,49.8,29.60,SE,138,7.0,25.0,90,0.01,,,0.12,VWS V14.01,2013-01-19 19:10:00,
2013-01-19 20:11:00,52.6,49.8,29.60,SSE,166,7.0,19.0,90,0.01,,,0.12,VWS V14.01,2013-01-19 19:11:00,
2013-01-19 20:16:00,52.7,49.8,29.60,ESE,121,7.0,16.0,90,0.01,,,0.12,VWS V14.01,2013-01-19 19:16:00,
2013-01-19 20:20:00,52.7,49.8,29.59,SSE,155,19.0,21.0,90,0.01,,,0.12,VWS V14.01,2013-01-19 19:20:00,
2013-01-19 20:21:00,52.7,49.8,29.59,SE,134,6.0,21.0,90,0.01,,,0.12,VWS V14.01,2013-01-19 19:21:00,
2013-01-19 20:27:00,52.9,50.0,29.59,SE,138,17.0,19.0,90,0.01,,,0.12,VWS V14.01,2013-01-19 19:27:00,
2013-01-19 20:30:00,53.1,50.2,29.60,ESE,120,10.0,21.0,90,0.01,,,0.12,VWS V14.01,2013-01-19 19:30:00,
2013-01-19 20:32:00,53.1,50.2,29.59,SSE,167,7.0,21.0,90,0.01,,,0.12,VWS V14.01,2013-01-19 19:32:00,
2013-01-19 20:37:00,53.3,50.5,29.60,SE,132,12.0,23.0,90,0.01,,,0.12,VWS V14.01,2013-01-19 19:37:00,
2013-01-19 20:40:00,53.3,50.5,29.59,SE,129,9.0,23.0,90,0.01,,,0.12,VWS V14.01,2013-01-19 19:40:00,
2013-01-19 20:43:00,53.2,50.3,29.59,SE,144,9.0,23.0,90,0.01,,,0.12,VWS V14.01,2013-01-19 19:43:00,
2013-01-19 20:48:00,53.2,50.3,29.59,SE,138,9.0,17.0,90,0.01,,,0.12,VWS V14.01,2013-01-19 19:48:00,
2013-01-19 20:50:00,53.3,50.5,29.59,SSE,163,12.0,29.0,90,0.01,,,0.12,VWS V14.01,2013-01-19 19:50:00,
2013-01-19 20:53:00,53.2,50.3,29.59,ESE,113,3.0,29.0,90,0.01,,,0.12,VWS V14.01,2013-01-19 19:53:00,
2013-01-19 20:58:00,53.3,50.5,29.60,SSE,152,20.0,21.0,90,0.00,,,0.12,VWS V14.01,2013-01-19 19:58:00,
2013-01-19 21:00:00,53.2,50.3,29.59,SSE,161,8.0,21.0,90,0.00,,,0.12,VWS V14.01,2013-01-19 20:00:00,
2013-01-19 21:03:00,53.2,50.3,29.59,SSE,162,15.0,21.0,90,0.00,,,0.12,VWS V14.01,2013-01-19 20:03:00,
2013-01-19 21:08:00,53.2,50.3,29.60,SE,136,18.0,26.0,90,0.00,,,0.12,VWS V14.01,2013-01-19 20:08:00,
2013-01-19 21:10:00,52.9,50.3,29.59,SE,134,10.0,26.0,91,0.00,,,0.12,VWS V14.01,2013-01-19 20:10:00,
2013-01-19 21:13:00,53.0,50.5,29.59,SSE,168,19.0,26.0,91,0.00,,,0.12,VWS V14.01,2013-01-19 20:13:00,
2013-01-19 21:18:00,52.9,50.3,29.59,SSE,147,12.0,25.0,91,0.01,,,0.13,VWS V14.01,2013-01-19 20:18:00,
2013-01-19 21:20:00,52.9,50.6,29.59,SE,140,14.0,25.0,92,0.02,,,0.14,VWS V14.01,2013-01-19 20:20:00,
2013-01-19 21:23:00,53.0,50.7,29.59,SE,136,12.0,25.0,92,0.02,,,0.14,VWS V14.01,2013-01-19 20:23:00,
2013-01-19 21:28:00,53.0,50.7,29.59,SE,144,14.0,23.0,92,0.03,,,0.15,VWS V14.01,2013-01-19 20:28:00,
2013-01-19 21:30:00,53.2,50.9,29.59,SSE,158,7.0,23.0,92,0.03,,,0.15,VWS V14.01,2013-01-19 20:30:00,
2013-01-19 21:33:00,53.2,50.9,29.59,SSE,153,11.0,23.0,92,0.03,,,0.15,VWS V14.01,2013-01-19 20:33:00,
2013-01-19 21:38:00,53.3,51.0,29.59,SE,140,24.0,27.0,92,0.03,,,0.15,VWS V14.01,2013-01-19 20:38:00,
2013-01-19 21:40:00,53.2,50.9,29.59,SE,129,12.0,27.0,92,0.03,,,0.15,VWS V14.01,2013-01-19 20:40:00,
2013-01-19 21:43:00,53.3,51.0,29.59,SE,144,14.0,27.0,92,0.03,,,0.15,VWS V14.01,2013-01-19 20:43:00,
2013-01-19 21:48:00,53.2,50.7,29.59,SE,136,5.0,18.0,91,0.03,,,0.15,VWS V14.01,2013-01-19 20:48:00,
2013-01-19 21:50:00,53.3,51.0,29.59,SE,128,9.0,18.0,92,0.03,,,0.15,VWS V14.01,2013-01-19 20:50:00,
2013-01-19 21:53:00,53.3,51.0,29.59,SSE,149,17.0,18.0,92,0.03,,,0.15,VWS V14.01,2013-01-19 20:53:00,
2013-01-19 21:59:00,53.5,50.9,29.59,SSE,150,9.0,22.0,91,0.03,,,0.15,VWS V14.01,2013-01-19 20:59:00,
2013-01-19 22:00:00,53.6,51.0,29.59,SE,139,12.0,23.0,91,0.03,,,0.15,VWS V14.01,2013-01-19 21:00:00,
2013-01-19 22:04:00,53.6,51.0,29.59,SE,138,15.0,23.0,91,0.03,,,0.15,VWS V14.01,2013-01-19 21:04:00,
2013-01-19 22:09:00,53.7,51.1,29.59,ESE,108,9.0,23.0,91,0.03,,,0.15,VWS V14.01,2013-01-19 21:09:00,
2013-01-19 22:10:00,53.8,51.2,29.60,SE,132,7.0,23.0,91,0.03,,,0.15,VWS V14.01,2013-01-19 21:10:00,
2013-01-19 22:14:00,53.8,51.2,29.60,SSE,151,10.0,23.0,91,0.03,,,0.15,VWS V14.01,2013-01-19 21:14:00,
2013-01-19 22:19:00,53.8,51.2,29.60,SSE,159,20.0,21.0,91,0.03,,,0.15,VWS V14.01,2013-01-19 21:19:00,
2013-01-19 22:20:00,53.9,51.3,29.60,SE,134,10.0,21.0,91,0.03,,,0.15,VWS V14.01,2013-01-19 21:20:00,
2013-01-19 22:24:00,53.9,51.3,29.60,SE,134,10.0,21.0,91,0.03,,,0.15,VWS V14.01,2013-01-19 21:24:00,
2013-01-19 22:30:00,53.9,51.3,29.60,SSE,154,15.0,15.0,91,0.01,,,0.15,VWS V14.01,2013-01-19 21:30:00,
2013-01-19 22:35:00,54.1,51.2,29.60,SE,134,13.0,14.0,90,0.00,,,0.15,VWS V14.01,2013-01-19 21:35:00,
2013-01-19 22:40:00,54.4,51.5,29.59,ESE,117,9.0,17.0,90,0.00,,,0.15,VWS V14.01,2013-01-19 21:40:00,
2013-01-19 22:45:00,54.4,51.5,29.59,SE,141,11.0,14.0,90,0.00,,,0.15,VWS V14.01,2013-01-19 21:45:00,
2013-01-19 22:50:00,54.5,51.6,29.59,SE,144,16.0,16.0,90,0.00,,,0.15,VWS V14.01,2013-01-19 21:50:00,
2013-01-19 22:56:00,54.8,51.9,29.59,SSE,158,6.0,19.0,90,0.00,,,0.15,VWS V14.01,2013-01-19 21:56:00,
2013-01-19 23:00:00,55.0,51.8,29.59,SSE,154,8.0,19.0,89,0.00,,,0.15,VWS V14.01,2013-01-19 22:00:00,
2013-01-19 23:01:00,54.9,51.7,29.59,SE,142,3.0,19.0,89,0.00,,,0.15,VWS V14.01,2013-01-19 22:01:00,
2013-01-19 23:06:00,55.1,51.9,29.58,SE,144,9.0,14.0,89,0.00,,,0.15,VWS V14.01,2013-01-19 22:06:00,
2013-01-19 23:10:00,55.4,51.9,29.59,SE,139,11.0,17.0,88,0.00,,,0.15,VWS V14.01,2013-01-19 22:10:00,
2013-01-19 23:11:00,55.3,52.1,29.58,SE,134,9.0,17.0,89,0.00,,,0.15,VWS V14.01,2013-01-19 22:11:00,
2013-01-19 23:16:00,55.5,52.0,29.59,SE,137,10.0,15.0,88,0.00,,,0.15,VWS V14.01,2013-01-19 22:16:00,
2013-01-19 23:20:00,55.6,51.8,29.59,SSE,160,12.0,17.0,87,0.00,,,0.15,VWS V14.01,2013-01-19 22:20:00,
2013-01-19 23:22:00,55.4,51.9,29.58,SE,145,15.0,16.0,88,0.00,,,0.15,VWS V14.01,2013-01-19 22:22:00,
2013-01-19 23:27:00,55.7,51.9,29.58,ESE,115,11.0,17.0,87,0.00,,,0.15,VWS V14.01,2013-01-19 22:27:00,
2013-01-19 23:30:00,55.9,52.1,29.58,ESE,123,7.0,17.0,87,0.00,,,0.15,VWS V14.01,2013-01-19 22:30:00,
2013-01-19 23:32:00,55.9,52.1,29.59,SE,146,12.0,17.0,87,0.00,,,0.15,VWS V14.01,2013-01-19 22:32:00,
2013-01-19 23:37:00,55.9,52.1,29.58,SE,145,7.0,16.0,87,0.00,,,0.15,VWS V14.01,2013-01-19 22:37:00,
2013-01-19 23:40:00,55.9,52.1,29.58,SE,127,11.0,21.0,87,0.00,,,0.15,VWS V14.01,2013-01-19 22:40:00,
2013-01-19 23:42:00,55.9,52.1,29.58,ESE,109,9.0,16.0,87,0.00,,,0.15,VWS V14.01,2013-01-19 22:42:00,
2013-01-19 23:47:00,56.0,51.9,29.58,ESE,122,8.0,16.0,86,0.00,,,0.15,VWS V14.01,2013-01-19 22:47:00,
2013-01-19 23:50:00,56.3,52.2,29.58,SE,128,21.0,21.0,86,0.00,,,0.15,VWS V14.01,2013-01-19 22:50:00,
2013-01-19 23:53:00,56.3,52.2,29.58,SE,136,9.0,18.0,86,0.00,,,0.15,VWS V14.01,2013-01-19 22:53:00,
2013-01-19 23:58:00,56.4,52.3,29.58,SSE,155,17.0,23.0,86,0.00,,,0.15,VWS V14.01,2013-01-19 22:58:00,